Meadville, PA

1:29 AM EST on December 16, 2019 (GMT -0500)
Port Meadville

Weather History for KGKJ - October, 2019

Change the Weather History Date:

Sunday, October 27, 2019

  Actual Average Record
Temperature  
Mean Temperature 54 °F -  
Max Temperature 59 °F 57 °F 82 °F (1963)
Min Temperature 46 °F 35 °F 22 °F (1949)
Degree Days  
Heating Degree Days 12    
Growing Degree Days 4 (Base 50)    
Moisture  
Dew Point 49 °F    
Average Humidity 85    
Maximum Humidity 93    
Minimum Humidity 72    
Precipitation  
Precipitation 0.44 in - - ()
Sea Level Pressure  
Sea Level Pressure 29.77 in    
Wind  
Wind Speed 9 mph ()    
Max Wind Speed 25 mph    
Max Gust Speed 37 mph    
Visibility 10.0 miles    
Events Rain    
Averages and records for this station are not official NWS values.
T = Trace of Precipitation, MM = Missing Value Source: Averaged Metar Reports

Daily Weather History Graph

Daily Weather History Graph

Search for Another Location

Airport or City:

Astronomy

Oct. 27, 2019 Rise Set
Actual Time 7:46 AM EDT 6:22 PM EDT
Civil Twilight 7:17 AM EDT 6:50 PM EDT
Nautical Twilight 6:45 AM EDT 7:23 PM EDT
Astronomical Twilight 6:13 AM EDT 7:55 PM EDT
Moon 6:51 AM EDT (10/27) 6:31 PM EDT (10/27)
Length of Visible Light 11h 32m
Length of Day
10h 35m
Waning Crescent, 0% of the Moon is Illuminated
Oct 27
Waning Crescent
Oct 27
New
Nov 4
First Quarter
Nov 12
Full
Nov 19
Last Quarter

Hourly Weather History & Observations

Time (EDT) Temp. Dew Point Humidity Pressure Visibility Wind Dir Wind Speed Gust Speed Precip Events Conditions
12:53 AM 52.0 °F 48.9 °F 89% 29.78 in 10.0 mi SE 10.4 mph 21.9 mph 0.13 in Rain Light Rain
1:06 AM 52.0 °F 48.9 °F 89% 29.76 in 10.0 mi SE 8.1 mph 18.4 mph 0.02 in Rain Light Rain
1:17 AM 52.0 °F 48.9 °F 89% 29.74 in 10.0 mi Variable 5.8 mph 24.2 mph 0.02 in   Overcast
1:34 AM 52.0 °F 50.0 °F 93% 29.73 in 10.0 mi North - - 0.02 in Rain Light Rain
1:53 AM 53.1 °F 50.0 °F 89% 29.72 in 10.0 mi SE 8.1 mph 18.4 mph 0.03 in Rain Light Rain
2:53 AM 54.0 °F 51.1 °F 90% 29.70 in 10.0 mi SE 8.1 mph - 0.10 in Rain Light Rain
3:01 AM 54.0 °F 51.1 °F 90% 29.68 in 10.0 mi North - - 0.00 in Rain Light Rain
3:22 AM 54.0 °F 52.0 °F 93% 29.67 in 10.0 mi SE 5.8 mph - 0.06 in Rain Heavy Rain
3:44 AM 55.9 °F 52.0 °F 87% 29.68 in 10.0 mi SSE 8.1 mph - 0.06 in Rain Light Rain
3:53 AM 55.9 °F 52.0 °F 87% 29.68 in 10.0 mi North - - 0.09 in Rain Rain
4:31 AM 55.9 °F 53.1 °F 90% 29.68 in 10.0 mi Variable 5.8 mph 26.5 mph 0.08 in Rain Light Rain
4:53 AM 55.9 °F 53.1 °F 90% 29.68 in 10.0 mi Variable 5.8 mph - 0.09 in Rain Light Rain
5:00 AM 55.9 °F 53.1 °F 90% 29.68 in 10.0 mi Variable 5.8 mph - 0.00 in Rain Light Rain
5:18 AM 55.9 °F 53.1 °F 90% 29.66 in 10.0 mi SE 8.1 mph - 0.00 in Rain Light Rain
5:29 AM 55.9 °F 53.1 °F 90% 29.66 in 10.0 mi SSE 8.1 mph - 0.00 in Rain Light Rain
5:53 AM 55.9 °F 54.0 °F 93% 29.59 in 10.0 mi Variable 6.9 mph 18.4 mph 0.00 in Rain Light Rain
6:03 AM 55.9 °F 54.0 °F 93% 29.62 in 10.0 mi SSE 8.1 mph 23.0 mph 0.00 in Rain Light Rain
6:48 AM 57.2 °F 53.6 °F 88% 29.61 in 10.0 mi North - - 0.00 in   Scattered Clouds
6:53 AM 57.0 °F 54.0 °F 89% 29.61 in 10.0 mi South 8.1 mph - 0.00 in   Partly Cloudy
7:14 AM 57.0 °F 54.0 °F 89% 29.62 in 10.0 mi South 8.1 mph - N/A   Mostly Cloudy
7:32 AM 57.9 °F 55.0 °F 90% 29.62 in 10.0 mi SSW 10.4 mph 20.7 mph N/A   Overcast
7:53 AM 57.9 °F 55.0 °F 90% 29.63 in 10.0 mi South 11.5 mph 21.9 mph N/A   Overcast
8:13 AM 59.0 °F 54.0 °F 83% 29.63 in 10.0 mi South 12.7 mph 21.9 mph N/A   Overcast
8:53 AM 59.0 °F 54.0 °F 83% 29.64 in 10.0 mi SSW 17.3 mph 26.5 mph N/A   Overcast
9:31 AM 57.9 °F 48.9 °F 72% 29.67 in 10.0 mi SW 20.7 mph 36.8 mph N/A   Overcast
9:53 AM 57.0 °F 48.0 °F 72% 29.69 in 10.0 mi SW 20.7 mph 32.2 mph N/A   Overcast
10:01 AM 55.9 °F 48.0 °F 75% 29.69 in 10.0 mi WSW 24.2 mph 35.7 mph N/A   Overcast
10:53 AM 54.0 °F 45.0 °F 72% 29.73 in 10.0 mi SW 16.1 mph 27.6 mph N/A   Overcast
11:53 AM 52.0 °F 45.0 °F 77% 29.78 in 10.0 mi WSW 20.7 mph 31.1 mph N/A   Overcast
12:53 PM 51.1 °F 45.0 °F 80% 29.81 in 10.0 mi WSW 12.7 mph 23.0 mph N/A   Overcast
1:53 PM 51.1 °F 44.1 °F 77% 29.83 in 10.0 mi WSW 25.3 mph 33.4 mph N/A   Overcast
2:53 PM 50.0 °F 45.0 °F 83% 29.86 in 10.0 mi WSW 13.8 mph 27.6 mph N/A   Overcast
3:30 PM 50.0 °F 45.0 °F 83% 29.88 in 10.0 mi WSW 16.1 mph 27.6 mph N/A   Overcast
3:53 PM 50.0 °F 45.0 °F 83% 29.89 in 10.0 mi WSW 17.3 mph 21.9 mph N/A   Overcast
4:53 PM 50.0 °F 45.0 °F 83% 29.93 in 10.0 mi WSW 13.8 mph 24.2 mph N/A   Overcast
5:53 PM 51.1 °F 46.0 °F 83% 29.96 in 10.0 mi West 11.5 mph - N/A   Overcast
6:35 PM 51.1 °F 46.0 °F 83% 29.97 in 10.0 mi WSW 8.1 mph - N/A   Overcast
6:53 PM 51.1 °F 46.0 °F 83% 29.98 in 10.0 mi WSW 8.1 mph - N/A   Overcast
7:53 PM 51.1 °F 46.0 °F 83% 30.00 in 10.0 mi SW 5.8 mph - N/A   Overcast
8:53 PM 51.1 °F 46.0 °F 83% 30.01 in 10.0 mi SSW 4.6 mph - N/A   Overcast
9:53 PM 51.1 °F 46.0 °F 83% 30.04 in 10.0 mi SW 8.1 mph - N/A   Overcast
10:15 PM 50.0 °F 45.0 °F 83% 30.04 in 10.0 mi SW 3.5 mph - N/A   Mostly Cloudy
10:53 PM 48.0 °F 44.1 °F 86% 30.06 in 10.0 mi Calm Calm - N/A   Clear
11:53 PM 46.9 °F 44.1 °F 90% 30.07 in 10.0 mi SSW 4.6 mph - N/A   Clear